Year,Month,Day,Hour,Minute,Value (Times are PST for temperature in C)
2018,05,30,00,00,9.60
2018,05,30,00,01,9.50
2018,05,30,00,02,9.50
2018,05,30,00,03,9.40
2018,05,30,00,04,9.40
2018,05,30,00,05,9.30
2018,05,30,00,06,9.30
2018,05,30,00,07,9.30
2018,05,30,00,08,9.20
2018,05,30,00,09,9.20
2018,05,30,00,10,9.10
2018,05,30,00,11,9.10
2018,05,30,00,12,9.10
2018,05,30,00,13,9.10
2018,05,30,00,14,9.00
2018,05,30,00,15,9.00
2018,05,30,00,16,9.00
2018,05,30,00,17,8.90
2018,05,30,00,18,8.90
2018,05,30,00,19,8.90
2018,05,30,00,20,8.90
2018,05,30,00,21,8.80
2018,05,30,00,22,8.80
2018,05,30,00,23,8.80
2018,05,30,00,24,8.80
2018,05,30,00,25,8.80
2018,05,30,00,26,8.70
2018,05,30,00,27,8.70
2018,05,30,00,28,8.70
2018,05,30,00,29,8.60
2018,05,30,00,30,8.60
2018,05,30,00,31,8.60
2018,05,30,00,32,8.50
2018,05,30,00,33,8.50
2018,05,30,00,34,8.40
2018,05,30,00,35,8.30
2018,05,30,00,36,8.30
2018,05,30,00,37,8.30
2018,05,30,00,38,8.20
2018,05,30,00,39,8.20
2018,05,30,00,40,8.10
2018,05,30,00,41,8.10
2018,05,30,00,42,8.00
2018,05,30,00,43,8.00
2018,05,30,00,44,7.90
2018,05,30,00,45,7.90
2018,05,30,00,46,7.90
2018,05,30,00,47,7.80
2018,05,30,00,48,7.80
2018,05,30,00,49,7.80
2018,05,30,00,50,7.80
2018,05,30,00,51,7.70
2018,05,30,00,52,7.70
2018,05,30,00,53,7.70
2018,05,30,00,54,7.60
2018,05,30,00,55,7.60
2018,05,30,00,56,7.60
2018,05,30,00,57,7.50
2018,05,30,00,58,7.50
2018,05,30,00,59,7.50
2018,05,30,01,00,7.40
2018,05,30,01,01,7.40
2018,05,30,01,02,7.40
2018,05,30,01,03,7.30
2018,05,30,01,04,7.30
2018,05,30,01,05,7.30
2018,05,30,01,06,7.30
2018,05,30,01,07,7.20
2018,05,30,01,08,7.20
2018,05,30,01,09,7.20
2018,05,30,01,10,7.20
2018,05,30,01,11,7.10
2018,05,30,01,12,7.10
2018,05,30,01,13,7.10
2018,05,30,01,14,7.10
2018,05,30,01,15,7.10
2018,05,30,01,16,7.10
2018,05,30,01,17,7.00
2018,05,30,01,18,7.00
2018,05,30,01,19,7.00
2018,05,30,01,20,6.90
2018,05,30,01,21,6.90
2018,05,30,01,22,6.90
2018,05,30,01,23,6.90
2018,05,30,01,24,6.90
2018,05,30,01,25,6.80
2018,05,30,01,26,6.80
2018,05,30,01,27,6.80
2018,05,30,01,28,6.80
2018,05,30,01,29,6.80
2018,05,30,01,30,6.70
2018,05,30,01,31,6.70
2018,05,30,01,32,6.70
2018,05,30,01,33,6.70
2018,05,30,01,34,6.70
2018,05,30,01,35,6.60
2018,05,30,01,36,6.60
2018,05,30,01,37,6.60
2018,05,30,01,38,6.60
2018,05,30,01,39,6.60
2018,05,30,01,40,6.60
2018,05,30,01,41,6.60
2018,05,30,01,42,6.50
2018,05,30,01,43,6.50
2018,05,30,01,44,6.40
2018,05,30,01,45,6.40
2018,05,30,01,46,6.40
2018,05,30,01,47,6.40
2018,05,30,01,48,6.40
2018,05,30,01,49,6.30
2018,05,30,01,50,6.30
2018,05,30,01,51,6.30
2018,05,30,01,52,6.20
2018,05,30,01,53,6.20
2018,05,30,01,54,6.20
2018,05,30,01,55,6.20
2018,05,30,01,56,6.10
2018,05,30,01,57,6.10
2018,05,30,01,58,6.10
2018,05,30,01,59,6.10
2018,05,30,02,00,6.10
2018,05,30,02,01,6.10
2018,05,30,02,02,6.00
2018,05,30,02,03,6.00
2018,05,30,02,04,5.90
2018,05,30,02,05,5.90
2018,05,30,02,06,5.90
2018,05,30,02,07,5.90
2018,05,30,02,08,5.90
2018,05,30,02,09,5.90
2018,05,30,02,10,5.90
2018,05,30,02,11,5.90
2018,05,30,02,12,5.80
2018,05,30,02,13,5.80
2018,05,30,02,14,5.80
2018,05,30,02,15,5.80
2018,05,30,02,16,5.80
2018,05,30,02,17,5.70
2018,05,30,02,18,5.70
2018,05,30,02,19,5.70
2018,05,30,02,20,5.70
2018,05,30,02,21,5.70
2018,05,30,02,22,5.70
2018,05,30,02,23,5.70
2018,05,30,02,24,5.60
2018,05,30,02,25,5.60
2018,05,30,02,26,5.60
2018,05,30,02,27,5.60
2018,05,30,02,28,5.60
2018,05,30,02,29,5.50
2018,05,30,02,30,5.50
2018,05,30,02,31,5.50
2018,05,30,02,32,5.40
2018,05,30,02,33,5.40
2018,05,30,02,34,5.40
2018,05,30,02,35,5.40
2018,05,30,02,36,5.40
2018,05,30,02,37,5.40
2018,05,30,02,38,5.40
2018,05,30,02,39,5.40
2018,05,30,02,40,5.30
2018,05,30,02,41,5.30
2018,05,30,02,42,5.30
2018,05,30,02,43,5.30
2018,05,30,02,44,5.30
2018,05,30,02,45,5.30
2018,05,30,02,46,5.30
2018,05,30,02,47,5.20
2018,05,30,02,48,5.20
2018,05,30,02,49,5.20
2018,05,30,02,50,5.20
2018,05,30,02,51,5.20
2018,05,30,02,52,5.20
2018,05,30,02,53,5.20
2018,05,30,02,54,5.20
2018,05,30,02,55,5.10
2018,05,30,02,56,5.10
2018,05,30,02,57,5.10
2018,05,30,02,58,5.10
2018,05,30,02,59,5.10
2018,05,30,03,00,5.00
2018,05,30,03,01,5.00
2018,05,30,03,02,5.00
2018,05,30,03,03,5.00
2018,05,30,03,04,4.90
2018,05,30,03,05,4.90
2018,05,30,03,06,4.90
2018,05,30,03,07,4.90
2018,05,30,03,08,4.90
2018,05,30,03,09,4.90
2018,05,30,03,10,4.90
2018,05,30,03,11,4.90
2018,05,30,03,12,4.90
2018,05,30,03,13,4.90
2018,05,30,03,14,4.90
2018,05,30,03,15,5.00
2018,05,30,03,16,5.00
2018,05,30,03,17,5.00
2018,05,30,03,18,5.00
2018,05,30,03,19,5.00
2018,05,30,03,20,5.00
2018,05,30,03,21,5.00
2018,05,30,03,22,5.00
2018,05,30,03,23,5.10
2018,05,30,03,24,5.10
2018,05,30,03,25,5.10
2018,05,30,03,26,5.10
2018,05,30,03,27,5.10
2018,05,30,03,28,5.20
2018,05,30,03,29,5.20
2018,05,30,03,30,5.20
2018,05,30,03,31,5.20
2018,05,30,03,32,5.20
2018,05,30,03,33,5.20
2018,05,30,03,34,5.30
2018,05,30,03,35,5.30
2018,05,30,03,36,5.30
2018,05,30,03,37,5.30
2018,05,30,03,38,5.30
2018,05,30,03,39,5.30
2018,05,30,03,40,5.30
2018,05,30,03,41,5.30
2018,05,30,03,42,5.30
2018,05,30,03,43,5.30
2018,05,30,03,44,5.30
2018,05,30,03,45,5.30
2018,05,30,03,46,5.30
2018,05,30,03,47,5.30
2018,05,30,03,48,5.30
2018,05,30,03,49,5.30
2018,05,30,03,50,5.30
2018,05,30,03,51,5.30
2018,05,30,03,52,5.30
2018,05,30,03,53,5.30
2018,05,30,03,54,5.30
2018,05,30,03,55,5.30
2018,05,30,03,56,5.30
2018,05,30,03,57,5.30
2018,05,30,03,58,5.30
2018,05,30,03,59,5.30
2018,05,30,04,00,5.30
2018,05,30,04,01,5.30
2018,05,30,04,02,5.30
2018,05,30,04,03,5.30
2018,05,30,04,04,5.20
2018,05,30,04,05,5.20
2018,05,30,04,06,5.20
2018,05,30,04,07,5.20
2018,05,30,04,08,5.20
2018,05,30,04,09,5.10
2018,05,30,04,10,5.10
2018,05,30,04,11,5.10
2018,05,30,04,12,5.00
2018,05,30,04,13,5.00
2018,05,30,04,14,5.00
2018,05,30,04,15,4.90
2018,05,30,04,16,4.90
2018,05,30,04,17,4.90
2018,05,30,04,18,4.90
2018,05,30,04,19,4.80
2018,05,30,04,20,4.80
2018,05,30,04,21,4.80
2018,05,30,04,22,4.80
2018,05,30,04,23,4.80
2018,05,30,04,24,4.70
2018,05,30,04,25,4.70
2018,05,30,04,26,4.70
2018,05,30,04,27,4.70
2018,05,30,04,28,4.60
2018,05,30,04,29,4.60
2018,05,30,04,30,4.60
2018,05,30,04,31,4.60
2018,05,30,04,32,4.60
2018,05,30,04,33,4.60
2018,05,30,04,34,4.50
2018,05,30,04,35,4.50
2018,05,30,04,36,4.50
2018,05,30,04,37,4.50
2018,05,30,04,38,4.50
2018,05,30,04,39,4.50
2018,05,30,04,40,4.50
2018,05,30,04,41,4.50
2018,05,30,04,42,4.50
2018,05,30,04,43,4.50
2018,05,30,04,44,4.50
2018,05,30,04,45,4.50
2018,05,30,04,46,4.50
2018,05,30,04,47,4.50
2018,05,30,04,48,4.40
2018,05,30,04,49,4.40
2018,05,30,04,50,4.40
2018,05,30,04,51,4.40
2018,05,30,04,52,4.40
2018,05,30,04,53,4.30
2018,05,30,04,54,4.30
2018,05,30,04,55,4.30
2018,05,30,04,56,4.30
2018,05,30,04,57,4.30
2018,05,30,04,58,4.30
2018,05,30,04,59,4.30
2018,05,30,05,00,4.30
2018,05,30,05,01,4.30
2018,05,30,05,02,4.30
2018,05,30,05,03,4.20
2018,05,30,05,04,4.20
2018,05,30,05,05,4.20
2018,05,30,05,06,4.20
2018,05,30,05,07,4.10
2018,05,30,05,08,4.10
2018,05,30,05,09,4.10
2018,05,30,05,10,4.10
2018,05,30,05,11,4.10
2018,05,30,05,12,4.00
2018,05,30,05,13,4.00
2018,05,30,05,14,4.00
2018,05,30,05,15,4.00
2018,05,30,05,16,3.90
2018,05,30,05,17,3.90
2018,05,30,05,18,3.90
2018,05,30,05,19,3.90
2018,05,30,05,20,3.80
2018,05,30,05,21,3.80
2018,05,30,05,22,3.80
2018,05,30,05,23,3.80
2018,05,30,05,24,3.80
2018,05,30,05,25,3.70
2018,05,30,05,26,3.70
2018,05,30,05,27,3.70
2018,05,30,05,28,3.70
2018,05,30,05,29,3.70
2018,05,30,05,30,3.70
2018,05,30,05,31,3.70
2018,05,30,05,32,3.70
2018,05,30,05,33,3.70
2018,05,30,05,34,3.70
2018,05,30,05,35,3.70
2018,05,30,05,36,3.60
2018,05,30,05,37,3.60
2018,05,30,05,38,3.60
2018,05,30,05,39,3.60
2018,05,30,05,40,3.60
2018,05,30,05,41,3.50
2018,05,30,05,42,3.50
2018,05,30,05,43,3.50
2018,05,30,05,44,3.50
2018,05,30,05,45,3.50
2018,05,30,05,46,3.50
2018,05,30,05,47,3.50
2018,05,30,05,48,3.50
2018,05,30,05,49,3.50
2018,05,30,05,50,3.50
2018,05,30,05,51,3.50
2018,05,30,05,52,3.40
2018,05,30,05,53,3.40
2018,05,30,05,54,3.40
2018,05,30,05,55,3.40
2018,05,30,05,56,3.40
2018,05,30,05,57,3.40
2018,05,30,05,58,3.40
2018,05,30,05,59,3.40
2018,05,30,06,00,3.40
2018,05,30,06,01,3.40
2018,05,30,06,02,3.40
2018,05,30,06,03,3.30
2018,05,30,06,04,3.30
2018,05,30,06,05,3.30
2018,05,30,06,06,3.30
2018,05,30,06,07,3.30
2018,05,30,06,08,3.30
2018,05,30,06,09,3.30
2018,05,30,06,10,3.30
2018,05,30,06,11,3.30
2018,05,30,06,12,3.30
2018,05,30,06,13,3.30
2018,05,30,06,14,3.30
2018,05,30,06,15,3.30
2018,05,30,06,16,3.30
2018,05,30,06,17,3.30
2018,05,30,06,18,3.30
2018,05,30,06,19,3.30
2018,05,30,06,20,3.30
2018,05,30,06,21,3.30
2018,05,30,06,22,3.30
2018,05,30,06,23,3.30
2018,05,30,06,24,3.30
2018,05,30,06,25,3.30
2018,05,30,06,26,3.30
2018,05,30,06,27,3.40
2018,05,30,06,28,3.40
2018,05,30,06,29,3.50
2018,05,30,06,30,3.50
2018,05,30,06,31,3.60
2018,05,30,06,32,3.60
2018,05,30,06,33,3.60
2018,05,30,06,34,3.60
2018,05,30,06,35,3.60
2018,05,30,06,36,3.60
2018,05,30,06,37,3.60
2018,05,30,06,38,3.60
2018,05,30,06,39,3.50
2018,05,30,06,40,3.50
2018,05,30,06,41,3.50
2018,05,30,06,42,3.40
2018,05,30,06,43,3.40
2018,05,30,06,44,3.40
2018,05,30,06,45,3.40
2018,05,30,06,46,3.40
2018,05,30,06,47,3.40
2018,05,30,06,48,3.40
2018,05,30,06,49,3.40
2018,05,30,06,50,3.40
2018,05,30,06,51,3.50
2018,05,30,06,52,3.50
2018,05,30,06,53,3.50
2018,05,30,06,54,3.50
2018,05,30,06,55,3.50
2018,05,30,06,56,3.50
2018,05,30,06,57,3.50
2018,05,30,06,58,3.50
2018,05,30,06,59,3.50
2018,05,30,07,00,3.50
2018,05,30,07,01,3.50
2018,05,30,07,02,3.50
2018,05,30,07,03,3.50
2018,05,30,07,04,3.50
2018,05,30,07,05,3.50
2018,05,30,07,06,3.50
2018,05,30,07,07,3.50
2018,05,30,07,08,3.50
2018,05,30,07,09,3.50
2018,05,30,07,10,3.50
2018,05,30,07,11,3.50
2018,05,30,07,12,3.50
2018,05,30,07,13,3.50
2018,05,30,07,14,3.50
2018,05,30,07,15,3.50
2018,05,30,07,16,3.50
2018,05,30,07,17,3.50
2018,05,30,07,18,3.50
2018,05,30,07,19,3.50
2018,05,30,07,20,3.50
2018,05,30,07,21,3.50
2018,05,30,07,22,3.50
2018,05,30,07,23,3.50
2018,05,30,07,24,3.50
2018,05,30,07,25,3.50
2018,05,30,07,26,3.50
2018,05,30,07,27,3.50
2018,05,30,07,28,3.50
2018,05,30,07,29,3.60
2018,05,30,07,30,3.60
2018,05,30,07,31,3.60
2018,05,30,07,32,3.60
2018,05,30,07,33,3.60
2018,05,30,07,34,3.60
2018,05,30,07,35,3.60
2018,05,30,07,36,3.70
2018,05,30,07,37,3.70
2018,05,30,07,38,3.70
2018,05,30,07,39,3.80
2018,05,30,07,40,3.80
2018,05,30,07,41,3.80
2018,05,30,07,42,3.80
2018,05,30,07,43,3.80
2018,05,30,07,44,3.80
2018,05,30,07,45,3.80
2018,05,30,07,46,3.90
2018,05,30,07,47,3.90
2018,05,30,07,48,4.00
2018,05,30,07,49,4.00
2018,05,30,07,50,4.10
2018,05,30,07,51,4.10
2018,05,30,07,52,4.20
2018,05,30,07,53,4.20
2018,05,30,07,54,4.30
2018,05,30,07,55,4.30
2018,05,30,07,56,4.30
2018,05,30,07,57,4.40
2018,05,30,07,58,4.50
2018,05,30,07,59,4.50
2018,05,30,08,00,4.60
2018,05,30,08,01,4.70
2018,05,30,08,02,4.70
2018,05,30,08,03,4.80
2018,05,30,08,04,4.90
2018,05,30,08,05,5.00
2018,05,30,08,06,5.10
2018,05,30,08,07,5.20
2018,05,30,08,08,5.20
2018,05,30,08,09,5.20
2018,05,30,08,10,5.20
2018,05,30,08,11,5.20
2018,05,30,08,12,5.20
2018,05,30,08,13,5.20
2018,05,30,08,14,5.30
2018,05,30,08,15,5.40
2018,05,30,08,16,5.40
2018,05,30,08,17,5.50
2018,05,30,08,18,5.60
2018,05,30,08,19,5.70
2018,05,30,08,20,5.70
2018,05,30,08,21,5.80
2018,05,30,08,22,5.80
2018,05,30,08,23,5.80
2018,05,30,08,24,5.90
2018,05,30,08,25,5.90
2018,05,30,08,26,6.00
2018,05,30,08,27,6.00
2018,05,30,08,28,6.10
2018,05,30,08,29,6.20
2018,05,30,08,30,6.30
2018,05,30,08,31,6.40
2018,05,30,08,32,6.50
2018,05,30,08,33,6.60
2018,05,30,08,34,6.60
2018,05,30,08,35,6.70
2018,05,30,08,36,6.70
2018,05,30,08,37,6.70
2018,05,30,08,38,6.70
2018,05,30,08,39,6.70
2018,05,30,08,40,6.80
2018,05,30,08,41,6.80
2018,05,30,08,42,6.90
2018,05,30,08,43,6.90
2018,05,30,08,44,7.00
2018,05,30,08,45,7.00
2018,05,30,08,46,7.10
2018,05,30,08,47,7.10
2018,05,30,08,48,7.20
2018,05,30,08,49,7.20
2018,05,30,08,50,7.30
2018,05,30,08,51,7.30
2018,05,30,08,52,7.40
2018,05,30,08,53,7.50
2018,05,30,08,54,7.50
2018,05,30,08,55,7.60
2018,05,30,08,56,7.60
2018,05,30,08,57,7.70
2018,05,30,08,58,7.70
2018,05,30,08,59,7.80
2018,05,30,09,00,7.80
2018,05,30,09,01,7.80
2018,05,30,09,02,7.80
2018,05,30,09,03,7.80
2018,05,30,09,04,7.80
2018,05,30,09,05,7.80
2018,05,30,09,06,7.90
2018,05,30,09,07,7.90
2018,05,30,09,08,8.00
2018,05,30,09,09,8.10
2018,05,30,09,10,8.10
2018,05,30,09,11,8.20
2018,05,30,09,12,8.30
2018,05,30,09,13,8.30
2018,05,30,09,14,8.40
2018,05,30,09,15,8.50
2018,05,30,09,16,8.60
2018,05,30,09,17,8.60
2018,05,30,09,18,8.70
2018,05,30,09,19,8.80
2018,05,30,09,20,8.80
2018,05,30,09,21,8.90
2018,05,30,09,22,8.90
2018,05,30,09,23,9.00
2018,05,30,09,24,9.10
2018,05,30,09,25,9.20
2018,05,30,09,26,9.20
2018,05,30,09,27,9.20
2018,05,30,09,28,9.30
2018,05,30,09,29,9.30
2018,05,30,09,30,9.30
2018,05,30,09,31,9.30
2018,05,30,09,32,9.40
2018,05,30,09,33,9.40
2018,05,30,09,34,9.50
2018,05,30,09,35,9.50
2018,05,30,09,36,9.60
2018,05,30,09,37,9.60
2018,05,30,09,38,9.70
2018,05,30,09,39,9.70
2018,05,30,09,40,9.80
2018,05,30,09,41,9.80
2018,05,30,09,42,9.80
2018,05,30,09,43,9.80
2018,05,30,09,44,9.90
2018,05,30,09,45,9.90
2018,05,30,09,46,9.90
2018,05,30,09,47,10.00
2018,05,30,09,48,10.00
2018,05,30,09,49,10.10
2018,05,30,09,50,10.20
2018,05,30,09,51,10.30
2018,05,30,09,52,10.40
2018,05,30,09,53,10.40
2018,05,30,09,54,10.50
2018,05,30,09,55,10.50
2018,05,30,09,56,10.60
2018,05,30,09,57,10.70
2018,05,30,09,58,10.80
2018,05,30,09,59,10.80
2018,05,30,10,00,10.90
2018,05,30,10,01,11.00
2018,05,30,10,02,11.00
2018,05,30,10,03,11.10
2018,05,30,10,04,11.10
2018,05,30,10,05,11.10
2018,05,30,10,06,11.00
2018,05,30,10,07,11.00
2018,05,30,10,08,10.90
2018,05,30,10,09,10.90
2018,05,30,10,10,10.90
2018,05,30,10,11,10.90
2018,05,30,10,12,10.90
2018,05,30,10,13,10.80
2018,05,30,10,14,10.80
2018,05,30,10,15,10.80
2018,05,30,10,16,10.90
2018,05,30,10,17,10.90
2018,05,30,10,18,11.00
2018,05,30,10,19,11.10
2018,05,30,10,20,11.20
2018,05,30,10,21,11.30
2018,05,30,10,22,11.40
2018,05,30,10,23,11.50
2018,05,30,10,24,11.50
2018,05,30,10,25,11.60
2018,05,30,10,26,11.70
2018,05,30,10,27,11.70
2018,05,30,10,28,11.80
2018,05,30,10,29,11.80
2018,05,30,10,30,11.80
2018,05,30,10,31,11.80
2018,05,30,10,32,11.80
2018,05,30,10,33,11.80
2018,05,30,10,34,11.80
2018,05,30,10,35,11.80
2018,05,30,10,36,11.90
2018,05,30,10,37,12.00
2018,05,30,10,38,12.00
2018,05,30,10,39,12.10
2018,05,30,10,40,12.20
2018,05,30,10,41,12.30
2018,05,30,10,42,12.40
2018,05,30,10,43,12.50
2018,05,30,10,44,12.60
2018,05,30,10,45,12.70
2018,05,30,10,46,12.80
2018,05,30,10,47,12.80
2018,05,30,10,48,12.90
2018,05,30,10,49,12.90
2018,05,30,10,50,13.00
2018,05,30,10,51,13.00
2018,05,30,10,52,13.00
2018,05,30,10,53,13.10
2018,05,30,10,54,13.10
2018,05,30,10,55,13.10
2018,05,30,10,56,13.10
2018,05,30,10,57,13.10
2018,05,30,10,58,13.20
2018,05,30,10,59,13.20
2018,05,30,11,00,13.20
2018,05,30,11,01,13.30
2018,05,30,11,02,13.30
2018,05,30,11,03,13.40
2018,05,30,11,04,13.50
2018,05,30,11,05,13.60
2018,05,30,11,06,13.60
2018,05,30,11,07,13.60
2018,05,30,11,08,13.60
2018,05,30,11,09,13.60
2018,05,30,11,10,13.60
2018,05,30,11,11,13.60
2018,05,30,11,12,13.60
2018,05,30,11,13,13.60
2018,05,30,11,14,13.60
2018,05,30,11,15,13.70
2018,05,30,11,16,13.70
2018,05,30,11,17,13.70
2018,05,30,11,18,13.70
2018,05,30,11,19,13.80
2018,05,30,11,20,13.80
2018,05,30,11,21,13.80
2018,05,30,11,22,13.90
2018,05,30,11,23,14.00
2018,05,30,11,24,14.10
2018,05,30,11,25,14.20
2018,05,30,11,26,14.30
2018,05,30,11,27,14.40
2018,05,30,11,28,14.50
2018,05,30,11,29,14.60
2018,05,30,11,30,14.70
2018,05,30,11,31,14.70
2018,05,30,11,32,14.80
2018,05,30,11,33,14.70
2018,05,30,11,34,14.70
2018,05,30,11,35,14.60
2018,05,30,11,36,14.60
2018,05,30,11,37,14.60
2018,05,30,11,38,14.60
2018,05,30,11,39,14.60
2018,05,30,11,40,14.60
2018,05,30,11,41,14.60
2018,05,30,11,42,14.70
2018,05,30,11,43,14.70
2018,05,30,11,44,14.70
2018,05,30,11,45,14.70
2018,05,30,11,46,14.70
2018,05,30,11,47,14.70
2018,05,30,11,48,14.70
2018,05,30,11,49,14.70
2018,05,30,11,50,14.60
2018,05,30,11,51,14.60
2018,05,30,11,52,14.60
2018,05,30,11,53,14.60
2018,05,30,11,54,14.60
2018,05,30,11,55,14.60
2018,05,30,11,56,14.60
2018,05,30,11,57,14.50
2018,05,30,11,58,14.50
2018,05,30,11,59,14.40
2018,05,30,12,00,14.40
2018,05,30,12,01,14.30
2018,05,30,12,02,14.30
2018,05,30,12,03,14.20
2018,05,30,12,04,14.20
2018,05,30,12,05,14.20
2018,05,30,12,06,14.10
2018,05,30,12,07,14.10
2018,05,30,12,08,14.10
2018,05,30,12,09,14.00
2018,05,30,12,10,14.00
2018,05,30,12,11,13.90
2018,05,30,12,12,13.90
2018,05,30,12,13,13.90
2018,05,30,12,14,14.00
2018,05,30,12,15,14.00
2018,05,30,12,16,14.10
2018,05,30,12,17,14.20
2018,05,30,12,18,14.20
2018,05,30,12,19,14.30
2018,05,30,12,20,14.50
2018,05,30,12,21,14.50
2018,05,30,12,22,14.60
2018,05,30,12,23,14.60
2018,05,30,12,24,14.70
2018,05,30,12,25,14.70
2018,05,30,12,26,14.80
2018,05,30,12,27,14.80
2018,05,30,12,28,14.90
2018,05,30,12,29,14.90
2018,05,30,12,30,15.00
2018,05,30,12,31,15.10
2018,05,30,12,32,15.20
2018,05,30,12,33,15.20
2018,05,30,12,34,15.30
2018,05,30,12,35,15.40
2018,05,30,12,36,15.40
2018,05,30,12,37,15.50
2018,05,30,12,38,15.60
2018,05,30,12,39,15.70
2018,05,30,12,40,15.80
2018,05,30,12,41,15.80
2018,05,30,12,42,15.90
2018,05,30,12,43,15.90
2018,05,30,12,44,16.00
2018,05,30,12,45,16.10
2018,05,30,12,46,16.20
2018,05,30,12,47,16.30
2018,05,30,12,48,16.30
2018,05,30,12,49,16.30
2018,05,30,12,50,16.40
2018,05,30,12,51,16.40
2018,05,30,12,52,16.40
2018,05,30,12,53,16.40
2018,05,30,12,54,16.50
2018,05,30,12,55,16.50
2018,05,30,12,56,16.50
2018,05,30,12,57,16.60
2018,05,30,12,58,16.60
2018,05,30,12,59,16.70
2018,05,30,13,00,16.70
2018,05,30,13,01,16.80
2018,05,30,13,02,16.80
2018,05,30,13,03,16.90
2018,05,30,13,04,17.00
2018,05,30,13,05,17.00
2018,05,30,13,06,17.10
2018,05,30,13,07,17.10
2018,05,30,13,08,17.20
2018,05,30,13,09,17.20
2018,05,30,13,10,17.30
2018,05,30,13,11,17.40
2018,05,30,13,12,17.40
2018,05,30,13,13,17.50
2018,05,30,13,14,17.50
2018,05,30,13,15,17.50
2018,05,30,13,16,17.50
2018,05,30,13,17,17.60
2018,05,30,13,18,17.60
2018,05,30,13,19,17.60
2018,05,30,13,20,17.50
2018,05,30,13,21,17.40
2018,05,30,13,22,17.30
2018,05,30,13,23,17.30
2018,05,30,13,24,17.30
2018,05,30,13,25,17.30
2018,05,30,13,26,17.30
2018,05,30,13,27,17.20
2018,05,30,13,28,17.10
2018,05,30,13,29,17.10
2018,05,30,13,30,17.00
2018,05,30,13,31,16.90
2018,05,30,13,32,16.90
2018,05,30,13,33,16.80
2018,05,30,13,34,16.70
2018,05,30,13,35,16.60
2018,05,30,13,36,16.60
2018,05,30,13,37,16.60
2018,05,30,13,38,16.60
2018,05,30,13,39,16.60
2018,05,30,13,40,16.60
2018,05,30,13,41,16.70
2018,05,30,13,42,16.70
2018,05,30,13,43,16.70
2018,05,30,13,44,16.60
2018,05,30,13,45,16.60
2018,05,30,13,46,16.50
2018,05,30,13,47,16.40
2018,05,30,13,48,16.40
2018,05,30,13,49,16.30
2018,05,30,13,50,16.20
2018,05,30,13,51,16.20
2018,05,30,13,52,16.10
2018,05,30,13,53,16.00
2018,05,30,13,54,15.90
2018,05,30,13,55,15.90
2018,05,30,13,56,15.80
2018,05,30,13,57,15.80
2018,05,30,13,58,15.70
2018,05,30,13,59,15.60
2018,05,30,14,00,15.50
2018,05,30,14,01,15.40
2018,05,30,14,02,15.30
2018,05,30,14,03,15.30
2018,05,30,14,04,15.20
2018,05,30,14,05,15.10
2018,05,30,14,06,15.00
2018,05,30,14,07,14.90
2018,05,30,14,08,14.90
2018,05,30,14,09,14.80
2018,05,30,14,10,14.80
2018,05,30,14,11,14.80
2018,05,30,14,12,14.80
2018,05,30,14,13,14.80
2018,05,30,14,14,14.80
2018,05,30,14,15,14.80
2018,05,30,14,16,14.80
2018,05,30,14,17,14.80
2018,05,30,14,18,14.80
2018,05,30,14,19,14.70
2018,05,30,14,20,14.70
2018,05,30,14,21,14.60
2018,05,30,14,22,14.50
2018,05,30,14,23,14.40
2018,05,30,14,24,14.30
2018,05,30,14,25,14.20
2018,05,30,14,26,14.10
2018,05,30,14,27,14.10
2018,05,30,14,28,14.10
2018,05,30,14,29,14.00
2018,05,30,14,30,13.90
2018,05,30,14,31,13.90
2018,05,30,14,32,13.80
2018,05,30,14,33,13.80
2018,05,30,14,34,13.70
2018,05,30,14,35,13.70
2018,05,30,14,36,13.70
2018,05,30,14,37,13.70
2018,05,30,14,38,13.60
2018,05,30,14,39,13.60
2018,05,30,14,40,13.70
2018,05,30,14,41,13.70
2018,05,30,14,42,13.70
2018,05,30,14,43,13.80
2018,05,30,14,44,13.80
2018,05,30,14,45,13.80
2018,05,30,14,46,13.90
2018,05,30,14,47,14.00
2018,05,30,14,48,14.00
2018,05,30,14,49,14.10
2018,05,30,14,50,14.20
2018,05,30,14,51,14.30
2018,05,30,14,52,14.40
2018,05,30,14,53,14.50
2018,05,30,14,54,14.70
2018,05,30,14,55,14.80
2018,05,30,14,56,14.90
2018,05,30,14,57,15.00
2018,05,30,14,58,15.10
2018,05,30,14,59,15.10
2018,05,30,15,00,15.20
2018,05,30,15,01,15.20
2018,05,30,15,02,15.30
2018,05,30,15,03,15.30
2018,05,30,15,04,15.30
2018,05,30,15,05,15.40
2018,05,30,15,06,15.40
2018,05,30,15,07,15.50
2018,05,30,15,08,15.50
2018,05,30,15,09,15.60
2018,05,30,15,10,15.60
2018,05,30,15,11,15.60
2018,05,30,15,12,15.70
2018,05,30,15,13,15.70
2018,05,30,15,14,15.60
2018,05,30,15,15,15.60
2018,05,30,15,16,15.50
2018,05,30,15,17,15.50
2018,05,30,15,18,15.40
2018,05,30,15,19,15.40
2018,05,30,15,20,15.40
2018,05,30,15,21,15.40
2018,05,30,15,22,15.40
2018,05,30,15,23,15.50
2018,05,30,15,24,15.50
2018,05,30,15,25,15.60
2018,05,30,15,26,15.60
2018,05,30,15,27,15.60
2018,05,30,15,28,15.60
2018,05,30,15,29,15.60
2018,05,30,15,30,15.50
2018,05,30,15,31,15.50
2018,05,30,15,32,15.40
2018,05,30,15,33,15.40
2018,05,30,15,34,15.40
2018,05,30,15,35,15.40
2018,05,30,15,36,15.40
2018,05,30,15,37,15.40
2018,05,30,15,38,15.40
2018,05,30,15,39,15.30
2018,05,30,15,40,15.30
2018,05,30,15,41,15.30
2018,05,30,15,42,15.30
2018,05,30,15,43,15.30
2018,05,30,15,44,15.30
2018,05,30,15,45,15.30
2018,05,30,15,46,15.30
2018,05,30,15,47,15.20
2018,05,30,15,48,15.20
2018,05,30,15,49,15.20
2018,05,30,15,50,15.10
2018,05,30,15,51,15.10
2018,05,30,15,52,15.00
2018,05,30,15,53,15.00
2018,05,30,15,54,15.00
2018,05,30,15,55,15.00
2018,05,30,15,56,15.00
2018,05,30,15,57,15.00
2018,05,30,15,58,14.90
2018,05,30,15,59,14.90
2018,05,30,16,00,14.80
2018,05,30,16,01,14.80
2018,05,30,16,02,14.80
2018,05,30,16,03,14.70
2018,05,30,16,04,14.70
2018,05,30,16,05,14.60
2018,05,30,16,06,14.60
2018,05,30,16,07,14.60
2018,05,30,16,08,14.60
2018,05,30,16,09,14.50
2018,05,30,16,10,14.50
2018,05,30,16,11,14.50
2018,05,30,16,12,14.50
2018,05,30,16,13,14.50
2018,05,30,16,14,14.50
2018,05,30,16,15,14.50
2018,05,30,16,16,14.50
2018,05,30,16,17,14.50
2018,05,30,16,18,14.50
2018,05,30,16,19,14.50
2018,05,30,16,20,14.50
2018,05,30,16,21,14.60
2018,05,30,16,22,14.60
2018,05,30,16,23,14.60
2018,05,30,16,24,14.50
2018,05,30,16,25,14.50
2018,05,30,16,26,14.50
2018,05,30,16,27,14.50
2018,05,30,16,28,14.50
2018,05,30,16,29,14.50
2018,05,30,16,30,14.50
2018,05,30,16,31,14.50
2018,05,30,16,32,14.60
2018,05,30,16,33,14.60
2018,05,30,16,34,14.60
2018,05,30,16,35,14.60
2018,05,30,16,36,14.70
2018,05,30,16,37,14.80
2018,05,30,16,38,14.80
2018,05,30,16,39,14.90
2018,05,30,16,40,15.00
2018,05,30,16,41,15.00
2018,05,30,16,42,15.00
2018,05,30,16,43,15.00
2018,05,30,16,44,15.00
2018,05,30,16,45,15.00
2018,05,30,16,46,15.00
2018,05,30,16,47,15.00
2018,05,30,16,48,15.00
2018,05,30,16,49,15.10
2018,05,30,16,50,15.10
2018,05,30,16,51,15.10
2018,05,30,16,52,15.20
2018,05,30,16,53,15.20
2018,05,30,16,54,15.30
2018,05,30,16,55,15.40
2018,05,30,16,56,15.50
2018,05,30,16,57,15.60
2018,05,30,16,58,15.60
2018,05,30,16,59,15.70
2018,05,30,17,00,15.80
2018,05,30,17,01,15.80
2018,05,30,17,02,15.80
2018,05,30,17,03,15.80
2018,05,30,17,04,15.90
2018,05,30,17,05,15.90
2018,05,30,17,06,16.00
2018,05,30,17,07,16.10
2018,05,30,17,08,16.10
2018,05,30,17,09,16.20
2018,05,30,17,10,16.20
2018,05,30,17,11,16.30
2018,05,30,17,12,16.40
2018,05,30,17,13,16.50
2018,05,30,17,14,16.50
2018,05,30,17,15,16.60
2018,05,30,17,16,16.60
2018,05,30,17,17,16.70
2018,05,30,17,18,16.70
2018,05,30,17,19,16.70
2018,05,30,17,20,16.70
2018,05,30,17,21,16.70
2018,05,30,17,22,16.70
2018,05,30,17,23,16.70
2018,05,30,17,24,16.60
2018,05,30,17,25,16.60
2018,05,30,17,26,16.70
2018,05,30,17,27,16.70
2018,05,30,17,28,16.70
2018,05,30,17,29,16.70
2018,05,30,17,30,16.70
2018,05,30,17,31,16.60
2018,05,30,17,32,16.60
2018,05,30,17,33,16.60
2018,05,30,17,34,16.50
2018,05,30,17,35,16.40
2018,05,30,17,36,16.40
2018,05,30,17,37,16.30
2018,05,30,17,38,16.20
2018,05,30,17,39,16.10
2018,05,30,17,40,16.10
2018,05,30,17,41,16.00
2018,05,30,17,42,15.90
2018,05,30,17,43,15.90
2018,05,30,17,44,15.80